Location: Unspecified
(48.7670°N, 0.0000°E)
Time: 02:31:57
(UTC+00:00)

BUGSAT 1 - Visible Passes

Search period start: 23 July 2019 00:00
Search period end: 02 August 2019 00:00
Orbit: 560 x 603 km, 98.0° (Epoch: 22 July)

Date Brightness Start Highest point End Pass type
(mag) Time Alt. Az. Time Alt. Az. Time Alt. Az.
23 Jul ? 01:27:43 10° NE 01:30:34 17° E 01:33:24 10° SE visible
23 Jul ? 03:02:02 10° N 03:06:12 54° WNW 03:09:50 13° SSW visible
24 Jul ? 01:32:54 10° NE 01:35:59 19° E 01:38:51 11° SE visible
24 Jul ? 03:07:27 10° N 03:11:34 48° WNW 03:15:13 13° SW visible
25 Jul ? 01:38:06 10° NE 01:41:25 22° E 01:44:14 12° SE visible
25 Jul ? 03:12:52 10° N 03:16:54 43° WNW 03:20:36 12° SW visible
26 Jul ? 01:43:21 10° NE 01:46:50 24° E 01:49:37 13° SE visible
26 Jul ? 03:18:18 10° N 03:22:15 38° WNW 03:25:58 11° SW visible
27 Jul ? 01:48:36 10° NE 01:52:14 27° E 01:54:59 15° SE visible
27 Jul ? 03:23:44 10° N 03:27:36 34° WNW 03:31:21 10° SW visible
28 Jul ? 01:53:52 10° NNE 01:57:39 30° E 02:00:22 16° SSE visible
28 Jul ? 03:29:11 10° N 03:32:57 31° WNW 03:36:39 10° SW visible
29 Jul ? 01:59:10 10° NNE 02:03:03 34° E 02:05:44 17° SSE visible
29 Jul ? 03:34:38 10° N 03:38:16 28° WNW 03:41:52 10° WSW visible
30 Jul ? 02:04:27 10° NNE 02:08:27 38° E 02:11:05 18° SSE visible
30 Jul ? 03:40:06 10° N 03:43:36 25° WNW 03:47:03 10° WSW visible
31 Jul ? 02:09:47 10° NNE 02:13:51 43° E 02:16:28 20° SSE visible
31 Jul ? 03:45:35 10° NNW 03:48:55 23° WNW 03:52:14 10° WSW visible
01 Aug ? 02:15:06 10° NNE 02:19:14 48° E 02:21:50 21° SSE visible
01 Aug ? 03:51:06 10° NNW 03:54:15 21° WNW 03:57:22 10° WSW visible
